| time (UTC) | temp F | wind direction | speed MPH | gust MPH | rain 1hr in | rain 24hr in | rain mn in | humidity % | barometer mb |
| 20260506043532 | 76 | 190 | 6.0 | 8.0 | 0.00 | 0.00 | 0.00 | 95 | 1009.1 |
| 20260506043020 | 76 | 174 | 7.0 | 12.0 | 0.00 | 0.00 | 0.00 | 95 | 1009.1 |
| 20260506042526 | 76 | 176 | 6.0 | 9.0 | 0.00 | 0.00 | 0.00 | 94 | 1009.2 |
| 20260506042015 | 76 | 173 | 6.0 | 9.0 | 0.00 | 0.00 | 0.00 | 94 | 1009.3 |
| 20260506041522 | 76 | 186 | 5.0 | 9.0 | 0.00 | 0.00 | 0.00 | 94 | 1009.2 |
| 20260506041028 | 76 | 181 | 6.0 | 12.0 | 0.00 | 0.00 | 0.00 | 94 | 1009.1 |
| 20260506040516 | 76 | 175 | 5.0 | 10.0 | 0.00 | 0.00 | 0.00 | 94 | 1009.1 |
| 20260506040023 | 76 | 180 | 6.0 | 9.0 | 0.00 | 0.00 | 0.00 | 94 | 1008.9 |
| 20260506035529 | 76 | 233 | 5.0 | 8.0 | 0.00 | 0.00 | 0.00 | 93 | 1008.9 |
| 20260506035018 | 76 | 189 | 6.0 | 8.0 | 0.00 | 0.00 | 0.00 | 93 | 1008.8 |
| 20260506034525 | 77 | 196 | 4.0 | 6.0 | 0.00 | 0.00 | 0.00 | 93 | 1008.8 |
| 20260506034112 | 77 | 176 | 6.0 | 12.0 | 0.00 | 0.00 | 0.00 | 92 | 1008.8 |
| 20260506033519 | 77 | 202 | 5.0 | 7.0 | 0.00 | 0.00 | 0.00 | 92 | 1008.8 |
| 20260506033106 | 77 | 192 | 5.0 | 8.0 | 0.00 | 0.00 | 0.00 | 91 | 1008.8 |
| 20260506032533 | 77 | 159 | 4.0 | 7.0 | 0.00 | 0.00 | 0.00 | 91 | 1008.6 |
| 20260506032041 | 77 | 168 | 6.0 | 7.0 | 0.00 | 0.00 | 0.00 | 90 | 1008.6 |
| 20260506031528 | 77 | 171 | 6.0 | 7.0 | 0.00 | 0.00 | 0.00 | 90 | 1008.5 |
| 20260506031016 | 77 | 165 | 5.0 | 6.0 | 0.00 | 0.00 | 0.00 | 89 | 1008.4 |
| 20260506030522 | 78 | 158 | 5.0 | 8.0 | 0.00 | 0.00 | 0.00 | 89 | 1008.4 |
| 20260506030029 | 78 | 171 | 6.0 | 9.0 | 0.00 | 0.00 | 0.00 | 89 | 1008.3 |
| 20260506025517 | 78 | 183 | 3.0 | 5.0 | 0.00 | 0.00 | 0.00 | 89 | 1008.3 |
| 20260506025024 | 78 | 167 | 4.0 | 5.0 | 0.00 | 0.00 | 0.00 | 88 | 1008.2 |
| 20260506024530 | 78 | 151 | 4.0 | 7.0 | 0.00 | 0.00 | 0.00 | 88 | 1008.1 |
| 20260506024019 | 78 | 180 | 4.0 | 7.0 | 0.00 | 0.00 | 0.00 | 88 | 1008.1 |
| 20260506023525 | 78 | 179 | 4.0 | 6.0 | 0.00 | 0.00 | 0.00 | 87 | 1007.9 |
| 20260506023032 | 78 | 190 | 5.0 | 6.0 | 0.00 | 0.00 | 0.00 | 87 | 1007.9 |
| 20260506022520 | 78 | 154 | 4.0 | 6.0 | 0.00 | 0.00 | 0.00 | 87 | 1007.8 |
| 20260506022027 | 78 | 163 | 4.0 | 6.0 | 0.00 | 0.00 | 0.00 | 87 | 1007.7 |
| 20260506021515 | 78 | 164 | 5.0 | 6.0 | 0.00 | 0.00 | 0.00 | 87 | 1007.6 |
| 20260506021022 | 79 | 163 | 5.0 | 9.0 | 0.00 | 0.00 | 0.00 | 87 | 1007.5 |
| 20260506020608 | 79 | 161 | 5.0 | 7.0 | 0.00 | 0.00 | 0.00 | 86 | 1007.5 |
| 20260506020017 | 79 | 148 | 5.0 | 7.0 | 0.00 | 0.00 | 0.00 | 86 | 1007.2 |
| 20260506015523 | 79 | 142 | 5.0 | 7.0 | 0.00 | 0.00 | 0.00 | 86 | 1007.2 |
| 20260506015030 | 79 | 146 | 5.0 | 7.0 | 0.00 | 0.00 | 0.00 | 86 | 1007.2 |
| 20260506014518 | 79 | 147 | 5.0 | 7.0 | 0.00 | 0.00 | 0.00 | 85 | 1007.2 |
| 20260506014045 | 79 | 172 | 5.0 | 9.0 | 0.00 | 0.00 | 0.00 | 85 | 1007.2 |
| 20260506013531 | 79 | 152 | 5.0 | 8.0 | 0.00 | 0.00 | 0.00 | 84 | 1007.2 |
| 20260506013019 | 80 | 174 | 5.0 | 6.0 | 0.00 | 0.00 | 0.00 | 84 | 1007.2 |
| 20260506012546 | 80 | 172 | 4.0 | 6.0 | 0.00 | 0.00 | 0.00 | 83 | 1007.1 |
| 20260506012033 | 80 | 154 | 4.0 | 6.0 | 0.00 | 0.00 | 0.00 | 82 | 1007.1 |
| 20260506011521 | 80 | 154 | 4.0 | 6.0 | 0.00 | 0.00 | 0.00 | 82 | 1007.0 |
| 20260506011028 | 81 | 167 | 4.0 | 6.0 | 0.00 | 0.00 | 0.00 | 81 | 1007.0 |
| 20260506010556 | 81 | 165 | 5.0 | 8.0 | 0.00 | 0.00 | 0.00 | 80 | 1007.0 |
| 20260506010022 | 81 | 163 | 5.0 | 7.0 | 0.00 | 0.00 | 0.00 | 80 | 1007.1 |
| 20260506005529 | 81 | 178 | 5.0 | 7.0 | 0.00 | 0.00 | 0.00 | 80 | 1007.1 |
| 20260506005017 | 82 | 206 | 6.0 | 10.0 | 0.00 | 0.00 | 0.00 | 79 | 1007.2 |
| 20260506004524 | 82 | 186 | 5.0 | 7.0 | 0.00 | 0.00 | 0.00 | 78 | 1007.2 |
| 20260506004030 | 83 | 174 | 5.0 | 8.0 | 0.00 | 0.00 | 0.00 | 78 | 1007.2 |
| 20260506003519 | 82 | 190 | 5.0 | 8.0 | 0.00 | 0.00 | 0.00 | 78 | 1007.2 |
| 20260506003026 | 83 | 173 | 5.0 | 7.0 | 0.00 | 0.00 | 0.00 | 78 | 1007.2 |
| 20260506002532 | 83 | 161 | 5.0 | 8.0 | 0.00 | 0.00 | 0.00 | 78 | 1007.3 |
| 20260506002020 | 83 | 194 | 5.0 | 8.0 | 0.00 | 0.00 | 0.00 | 78 | 1007.3 |
| 20260506001527 | 83 | 174 | 5.0 | 8.0 | 0.00 | 0.00 | 0.00 | 77 | 1007.2 |
| 20260506001015 | 83 | 193 | 4.0 | 6.0 | 0.00 | 0.00 | 0.00 | 77 | 1007.2 |
| 20260506000522 | 83 | 175 | 5.0 | 7.0 | 0.00 | 0.00 | 0.00 | 77 | 1007.2 |
| 20260506000029 | 83 | 164 | 4.0 | 6.0 | 0.00 | 0.00 | 0.00 | 76 | 1007.2 |
| 20260505235517 | 83 | 209 | 5.0 | 7.0 | 0.00 | 0.00 | 0.00 | 76 | 1007.2 |
| 20260505235023 | 83 | 202 | 7.0 | 11.0 | 0.00 | 0.00 | 0.00 | 76 | 1007.0 |
| 20260505234530 | 83 | 184 | 7.0 | 10.0 | 0.00 | 0.00 | 0.00 | 76 | 1006.9 |
| 20260505234018 | 83 | 195 | 6.0 | 10.0 | 0.00 | 0.00 | 0.00 | 76 | 1006.9 |
| 20260505233525 | 84 | 169 | 6.0 | 11.0 | 0.00 | 0.00 | 0.00 | 76 | 1006.8 |
| 20260505233031 | 83 | 197 | 6.0 | 8.0 | 0.00 | 0.00 | 0.00 | 76 | 1006.8 |
| 20260505232520 | 84 | 191 | 7.0 | 9.0 | 0.00 | 0.00 | 0.00 | 76 | 1006.8 |
| 20260505232026 | 84 | 186 | 8.0 | 11.0 | 0.00 | 0.00 | 0.00 | 75 | 1006.8 |
| 20260505231533 | 84 | 196 | 6.0 | 9.0 | 0.00 | 0.00 | 0.00 | 75 | 1006.7 |
| 20260505231021 | 84 | 175 | 7.0 | 9.0 | 0.00 | 0.00 | 0.00 | 74 | 1006.7 |
| 20260505230528 | 84 | 177 | 7.0 | 11.0 | 0.00 | 0.00 | 0.00 | 74 | 1006.7 |
| 20260505230036 | 84 | 196 | 7.0 | 9.0 | 0.00 | 0.00 | 0.00 | 74 | 1006.6 |
| 20260505225523 | 84 | 172 | 7.0 | 9.0 | 0.00 | 0.00 | 0.00 | 74 | 1006.6 |
| 20260505225029 | 84 | 177 | 8.0 | 11.0 | 0.00 | 0.00 | 0.00 | 74 | 1006.6 |
| 20260505224518 | 85 | 171 | 7.0 | 10.0 | 0.00 | 0.00 | 0.00 | 73 | 1006.6 |
| 20260505224024 | 85 | 195 | 7.0 | 12.0 | 0.00 | 0.00 | 0.00 | 73 | 1006.6 |
| 20260505223531 | 85 | 185 | 8.0 | 11.0 | 0.00 | 0.00 | 0.00 | 73 | 1006.6 |
| 20260505223019 | 85 | 198 | 7.0 | 9.0 | 0.00 | 0.00 | 0.00 | 73 | 1006.6 |
| 20260505222546 | 85 | 186 | 7.0 | 10.0 | 0.00 | 0.00 | 0.00 | 72 | 1006.5 |
| 20260505222032 | 85 | 178 | 8.0 | 10.0 | 0.00 | 0.00 | 0.00 | 72 | 1006.5 |
| 20260505221521 | 85 | 196 | 7.0 | 10.0 | 0.00 | 0.00 | 0.00 | 72 | 1006.6 |
| 20260505221027 | 85 | 202 | 8.0 | 11.0 | 0.00 | 0.00 | 0.00 | 72 | 1006.7 |
| 20260505220516 | 86 | 193 | 7.0 | 12.0 | 0.00 | 0.00 | 0.00 | 72 | 1006.7 |
| 20260505220022 | 86 | 179 | 8.0 | 11.0 | 0.00 | 0.00 | 0.00 | 72 | 1006.8 |
| 20260505215529 | 86 | 194 | 8.0 | 10.0 | 0.00 | 0.00 | 0.00 | 72 | 1006.8 |
| 20260505215017 | 86 | 191 | 7.0 | 10.0 | 0.00 | 0.00 | 0.00 | 72 | 1006.8 |
| 20260505214524 | 86 | 154 | 8.0 | 10.0 | 0.00 | 0.00 | 0.00 | 73 | 1006.9 |
| 20260505214031 | 86 | 178 | 8.0 | 17.0 | 0.00 | 0.00 | 0.00 | 73 | 1006.9 |
| 20260505213519 | 86 | 160 | 8.0 | 11.0 | 0.00 | 0.00 | 0.00 | 73 | 1007.0 |
| 20260505213045 | 86 | 179 | 7.0 | 11.0 | 0.00 | 0.00 | 0.00 | 72 | 1007.0 |
| 20260505212532 | 86 | 195 | 8.0 | 10.0 | 0.00 | 0.00 | 0.00 | 72 | 1007.2 |
| 20260505212020 | 86 | 175 | 9.0 | 14.0 | 0.00 | 0.00 | 0.00 | 72 | 1007.2 |
| 20260505211547 | 87 | 179 | 8.0 | 13.0 | 0.00 | 0.00 | 0.00 | 71 | 1007.2 |
| 20260505211015 | 87 | 162 | 7.0 | 11.0 | 0.00 | 0.00 | 0.00 | 72 | 1007.2 |
| 20260505210522 | 88 | 168 | 8.0 | 12.0 | 0.00 | 0.00 | 0.00 | 70 | 1007.2 |
| 20260505210028 | 87 | 183 | 7.0 | 10.0 | 0.00 | 0.00 | 0.00 | 70 | 1007.3 |
| 20260505205537 | 87 | 200 | 8.0 | 13.0 | 0.00 | 0.00 | 0.00 | 71 | 1007.3 |
| 20260505205023 | 87 | 233 | 8.0 | 12.0 | 0.00 | 0.00 | 0.00 | 71 | 1007.3 |
| 20260505204530 | 87 | 180 | 7.0 | 10.0 | 0.00 | 0.00 | 0.00 | 71 | 1007.4 |
| 20260505204018 | 87 | 193 | 8.0 | 11.0 | 0.00 | 0.00 | 0.00 | 72 | 1007.4 |
| 20260505203525 | 86 | 193 | 7.0 | 11.0 | 0.00 | 0.00 | 0.00 | 73 | 1007.6 |
| 20260505203052 | 85 | 177 | 9.0 | 13.0 | 0.00 | 0.00 | 0.00 | 73 | 1007.6 |
| 20260505202520 | 85 | 184 | 8.0 | 10.0 | 0.00 | 0.00 | 0.00 | 72 | 1007.7 |
| 20260505202026 | 86 | 165 | 10.0 | 15.0 | 0.00 | 0.00 | 0.00 | 71 | 1007.8 |
| 20260505201553 | 86 | 201 | 8.0 | 14.0 | 0.00 | 0.00 | 0.00 | 72 | 1007.9 |
| 20260505201021 | 86 | 189 | 10.0 | 13.0 | 0.00 | 0.00 | 0.00 | 72 | 1008.0 |
| 20260505200528 | 86 | 198 | 9.0 | 13.0 | 0.00 | 0.00 | 0.00 | 72 | 1008.0 |
| 20260505200016 | 86 | 225 | 7.0 | 10.0 | 0.00 | 0.00 | 0.00 | 72 | 1008.1 |
| 20260505195523 | 86 | 200 | 8.0 | 15.0 | 0.00 | 0.00 | 0.00 | 72 | 1008.1 |
| 20260505195030 | 86 | 176 | 7.0 | 11.0 | 0.00 | 0.00 | 0.00 | 72 | 1008.3 |
| 20260505194518 | 86 | 224 | 8.0 | 15.0 | 0.00 | 0.00 | 0.00 | 72 | 1008.4 |
| 20260505194024 | 86 | 192 | 7.0 | 12.0 | 0.00 | 0.00 | 0.00 | 72 | 1008.5 |
| 20260505193531 | 85 | 189 | 7.0 | 10.0 | 0.00 | 0.00 | 0.00 | 73 | 1008.6 |
| 20260505193019 | 85 | 201 | 8.0 | 11.0 | 0.00 | 0.00 | 0.00 | 72 | 1008.6 |
| 20260505192526 | 84 | 221 | 7.0 | 10.0 | 0.00 | 0.00 | 0.00 | 73 | 1008.6 |
| 20260505192032 | 85 | 226 | 7.0 | 11.0 | 0.00 | 0.00 | 0.00 | 73 | 1008.6 |
| 20260505191520 | 84 | 208 | 7.0 | 12.0 | 0.00 | 0.00 | 0.00 | 73 | 1008.6 |
| 20260505191047 | 83 | 173 | 9.0 | 15.0 | 0.00 | 0.00 | 0.00 | 74 | 1008.8 |
| 20260505190515 | 83 | 192 | 10.0 | 13.0 | 0.00 | 0.00 | 0.00 | 75 | 1008.8 |
| 20260505190022 | 83 | 200 | 8.0 | 13.0 | 0.00 | 0.00 | 0.00 | 75 | 1008.9 |
| 20260505185528 | 82 | 190 | 9.0 | 15.0 | 0.00 | 0.00 | 0.00 | 76 | 1008.9 |
| 20260505185017 | 83 | 171 | 8.0 | 11.0 | 0.00 | 0.00 | 0.00 | 75 | 1009.0 |
| 20260505184524 | 83 | 224 | 7.0 | 10.0 | 0.00 | 0.00 | 0.00 | 75 | 1009.1 |
| 20260505184030 | 82 | 178 | 8.0 | 12.0 | 0.00 | 0.00 | 0.00 | 76 | 1009.1 |
| 20260505183538 | 81 | 201 | 9.0 | 13.0 | 0.00 | 0.00 | 0.00 | 78 | 1009.3 |
| 20260505183025 | 81 | 203 | 9.0 | 11.0 | 0.00 | 0.00 | 0.00 | 78 | 1009.3 |
| 20260505182533 | 81 | 213 | 9.0 | 12.0 | 0.00 | 0.00 | 0.00 | 78 | 1009.3 |
| 20260505182020 | 81 | 178 | 9.0 | 12.0 | 0.00 | 0.00 | 0.00 | 78 | 1009.3 |
| 20260505181526 | 81 | 185 | 9.0 | 14.0 | 0.00 | 0.00 | 0.00 | 79 | 1009.3 |
| 20260505181015 | 80 | 201 | 8.0 | 12.0 | 0.00 | 0.00 | 0.00 | 80 | 1009.3 |
| 20260505180602 | 80 | 176 | 11.0 | 16.0 | 0.00 | 0.00 | 0.00 | 81 | 1009.3 |
| 20260505180028 | 79 | 182 | 9.0 | 13.0 | 0.00 | 0.00 | 0.00 | 81 | 1009.7 |
| 20260505175556 | 79 | 211 | 9.0 | 13.0 | 0.00 | 0.00 | 0.00 | 81 | 1009.7 |
| 20260505175023 | 79 | 213 | 7.0 | 11.0 | 0.00 | 0.00 | 0.00 | 82 | 1009.7 |
| 20260505174550 | 78 | 193 | 9.0 | 11.0 | 0.00 | 0.00 | 0.00 | 83 | 1009.7 |
| 20260505174038 | 78 | 188 | 9.0 | 13.0 | 0.00 | 0.00 | 0.00 | 83 | 1009.7 |
| 20260505173524 | 78 | 195 | 9.0 | 13.0 | 0.00 | 0.00 | 0.00 | 84 | 1009.8 |
| 20260505173031 | 78 | 216 | 8.0 | 12.0 | 0.00 | 0.00 | 0.00 | 84 | 1009.8 |
| 20260505172540 | 78 | 202 | 6.0 | 11.0 | 0.00 | 0.00 | 0.00 | 84 | 1009.8 |
| 20260505172026 | 77 | 236 | 7.0 | 12.0 | 0.00 | 0.00 | 0.00 | 86 | 1009.8 |
| 20260505171532 | 76 | 208 | 8.0 | 11.0 | 0.00 | 0.00 | 0.00 | 86 | 1009.9 |
| 20260505171021 | 76 | 226 | 7.0 | 10.0 | 0.00 | 0.00 | 0.00 | 87 | 1010.0 |
| 20260505170527 | 76 | 198 | 8.0 | 13.0 | 0.00 | 0.00 | 0.00 | 87 | 1010.0 |
| 20260505170016 | 76 | 207 | 8.0 | 12.0 | 0.00 | 0.00 | 0.00 | 87 | 1009.8 |
| 20260505165522 | 76 | 184 | 8.0 | 11.0 | 0.00 | 0.00 | 0.00 | 87 | 1009.8 |
| 20260505165029 | 75 | 206 | 9.0 | 15.0 | 0.00 | 0.00 | 0.00 | 88 | 1009.8 |
| 20260505164517 | 75 | 194 | 9.0 | 10.0 | 0.00 | 0.00 | 0.00 | 88 | 1009.8 |
| 20260505164024 | 75 | 189 | 8.0 | 11.0 | 0.00 | 0.00 | 0.00 | 88 | 1009.8 |
| 20260505163530 | 75 | 200 | 8.0 | 10.0 | 0.00 | 0.00 | 0.00 | 88 | 1009.8 |
| 20260505163018 | 75 | 201 | 6.0 | 9.0 | 0.00 | 0.00 | 0.00 | 89 | 1009.8 |
| 20260505162525 | 74 | 202 | 6.0 | 11.0 | 0.00 | 0.00 | 0.00 | 90 | 1009.8 |
| 20260505161540 | 73 | 208 | 7.0 | 9.0 | 0.00 | 0.00 | 0.00 | 91 | 1009.8 |
| 20260505161027 | 74 | 181 | 8.0 | 13.0 | 0.00 | 0.00 | 0.00 | 91 | 1009.8 |
| 20260505160515 | 74 | 204 | 7.0 | 10.0 | 0.00 | 0.00 | 0.00 | 92 | 1009.8 |
| 20260505153024 | 72 | 178 | 5.0 | 8.0 | 0.00 | 0.00 | 0.00 | 94 | 1009.8 |
| 20260505152531 | 72 | 215 | 7.0 | 11.0 | 0.00 | 0.00 | 0.00 | 94 | 1009.8 |
| 20260505152019 | 72 | 246 | 7.0 | 11.0 | 0.00 | 0.00 | 0.00 | 94 | 1009.8 |
| 20260505151526 | 72 | 205 | 6.0 | 9.0 | 0.00 | 0.00 | 0.00 | 95 | 1009.8 |
| 20260505151053 | 72 | 204 | 7.0 | 11.0 | 0.00 | 0.00 | 0.00 | 95 | 1009.8 |
| 20260505150521 | 71 | 219 | 8.0 | 11.0 | 0.00 | 0.00 | 0.00 | 95 | 1009.8 |
| 20260505140527 | 71 | 200 | 8.0 | 10.0 | 0.00 | 0.00 | 0.00 | 95 | 1009.1 |
| 20260505125016 | 70 | 206 | 8.0 | 10.0 | 0.00 | 0.00 | 0.00 | 96 | 1008.5 |
| 20260505124523 | 70 | 208 | 7.0 | 13.0 | 0.00 | 0.00 | 0.00 | 96 | 1008.4 |
| 20260505124049 | 70 | 200 | 8.0 | 12.0 | 0.00 | 0.00 | 0.00 | 96 | 1008.4 |
| 20260505123538 | 70 | 191 | 6.0 | 11.0 | 0.00 | 0.00 | 0.00 | 96 | 1008.2 |
| 20260505123104 | 70 | 190 | 7.0 | 9.0 | 0.00 | 0.00 | 0.00 | 96 | 1008.2 |
| 20260505122531 | 70 | 189 | 8.0 | 11.0 | 0.00 | 0.00 | 0.00 | 97 | 1008.1 |
| 20260505122019 | 70 | 202 | 6.0 | 9.0 | 0.00 | 0.00 | 0.00 | 97 | 1008.0 |
| 20260505121526 | 70 | 186 | 8.0 | 12.0 | 0.00 | 0.00 | 0.00 | 97 | 1008.0 |
| 20260505121032 | 70 | 194 | 7.0 | 10.0 | 0.00 | 0.00 | 0.00 | 97 | 1007.9 |
| 20260505120521 | 70 | 220 | 7.0 | 12.0 | 0.00 | 0.00 | 0.00 | 97 | 1007.9 |
| 20260505120027 | 69 | 208 | 7.0 | 11.0 | 0.00 | 0.00 | 0.00 | 97 | 1007.6 |
| 20260505115515 | 69 | 187 | 10.0 | 13.0 | 0.00 | 0.00 | 0.00 | 97 | 1007.6 |
| 20260505115022 | 69 | 188 | 9.0 | 14.0 | 0.00 | 0.00 | 0.00 | 97 | 1007.7 |
| 20260505114529 | 69 | 179 | 8.0 | 11.0 | 0.00 | 0.00 | 0.00 | 97 | 1007.8 |
| 20260505114017 | 70 | 186 | 8.0 | 11.0 | 0.00 | 0.00 | 0.00 | 97 | 1007.8 |
| 20260505113624 | 70 | 183 | 9.0 | 13.0 | 0.00 | 0.00 | 0.00 | 97 | 1007.9 |
| 20260505113030 | 70 | 185 | 8.0 | 13.0 | 0.00 | 0.00 | 0.00 | 96 | 1007.9 |
| 20260505112518 | 70 | 187 | 7.0 | 10.0 | 0.00 | 0.00 | 0.00 | 96 | 1007.8 |
| 20260505112025 | 70 | 204 | 8.0 | 11.0 | 0.00 | 0.00 | 0.00 | 96 | 1007.7 |
| 20260505111532 | 70 | 209 | 10.0 | 14.0 | 0.00 | 0.00 | 0.00 | 96 | 1007.8 |
| 20260505111020 | 70 | 184 | 8.0 | 15.0 | 0.00 | 0.00 | 0.00 | 96 | 1007.9 |
| 20260505110526 | 70 | 227 | 8.0 | 10.0 | 0.00 | 0.00 | 0.00 | 96 | 1007.9 |
| 20260505102132 | 70 | 199 | 7.0 | 9.0 | 0.00 | 0.00 | 0.00 | 95 | 1008.0 |
| 20260505101540 | 70 | 215 | 8.0 | 10.0 | 0.00 | 0.00 | 0.00 | 95 | 1008.1 |
| 20260505101026 | 70 | 190 | 8.0 | 13.0 | 0.00 | 0.00 | 0.00 | 95 | 1008.2 |
| 20260505100533 | 70 | 188 | 8.0 | 11.0 | 0.00 | 0.00 | 0.00 | 95 | 1008.2 |
| 20260505100021 | 70 | 207 | 7.0 | 9.0 | 0.00 | 0.00 | 0.00 | 95 | 1008.2 |
| 20260505095527 | 70 | 192 | 7.0 | 11.0 | 0.00 | 0.00 | 0.00 | 95 | 1008.2 |
| 20260505095016 | 70 | 176 | 8.0 | 14.0 | 0.00 | 0.00 | 0.00 | 95 | 1008.2 |
| 20260505094543 | 70 | 185 | 6.0 | 9.0 | 0.00 | 0.00 | 0.00 | 95 | 1008.1 |
| 20260505094110 | 70 | 202 | 7.0 | 9.0 | 0.00 | 0.00 | 0.00 | 95 | 1008.1 |
| 20260505093517 | 70 | 179 | 8.0 | 12.0 | 0.00 | 0.00 | 0.00 | 95 | 1008.3 |
| 20260505093024 | 70 | 195 | 7.0 | 17.0 | 0.00 | 0.00 | 0.00 | 95 | 1008.3 |
| 20260505092530 | 70 | 177 | 8.0 | 12.0 | 0.00 | 0.00 | 0.00 | 95 | 1008.2 |
| 20260505092019 | 70 | 179 | 7.0 | 10.0 | 0.00 | 0.00 | 0.00 | 95 | 1008.2 |
| 20260505091526 | 70 | 190 | 6.0 | 10.0 | 0.00 | 0.00 | 0.00 | 95 | 1008.3 |
| 20260505091032 | 70 | 188 | 6.0 | 9.0 | 0.00 | 0.00 | 0.00 | 95 | 1008.4 |
| 20260505090521 | 70 | 202 | 8.0 | 11.0 | 0.00 | 0.00 | 0.00 | 95 | 1008.4 |
| 20260505090027 | 70 | 204 | 6.0 | 11.0 | 0.00 | 0.00 | 0.00 | 95 | 1008.4 |
| 20260505085515 | 70 | 189 | 8.0 | 13.0 | 0.00 | 0.00 | 0.00 | 94 | 1008.4 |
| 20260505085022 | 70 | 201 | 6.0 | 10.0 | 0.00 | 0.00 | 0.00 | 94 | 1008.5 |
| 20260505084529 | 70 | 181 | 10.0 | 14.0 | 0.00 | 0.00 | 0.00 | 94 | 1008.6 |
| 20260505084017 | 70 | 201 | 10.0 | 13.0 | 0.00 | 0.00 | 0.00 | 94 | 1008.6 |
| 20260505083544 | 70 | 196 | 8.0 | 15.0 | 0.00 | 0.00 | 0.00 | 94 | 1008.6 |
| 20260505083030 | 70 | 214 | 9.0 | 18.0 | 0.00 | 0.00 | 0.00 | 94 | 1008.6 |
| 20260505082518 | 70 | 183 | 6.0 | 9.0 | 0.00 | 0.00 | 0.00 | 94 | 1008.6 |
| 20260505082025 | 70 | 190 | 9.0 | 17.0 | 0.00 | 0.00 | 0.00 | 93 | 1008.6 |
| 20260505081532 | 70 | 185 | 8.0 | 13.0 | 0.00 | 0.00 | 0.00 | 93 | 1008.7 |
| 20260505081040 | 70 | 196 | 9.0 | 15.0 | 0.00 | 0.00 | 0.00 | 93 | 1008.8 |
| 20260505080526 | 70 | 192 | 9.0 | 16.0 | 0.00 | 0.00 | 0.00 | 93 | 1008.8 |
| 20260505080033 | 70 | 203 | 10.0 | 15.0 | 0.00 | 0.00 | 0.00 | 93 | 1008.8 |
| 20260505075521 | 70 | 205 | 9.0 | 13.0 | 0.00 | 0.00 | 0.00 | 93 | 1008.8 |
| 20260505075048 | 70 | 183 | 10.0 | 17.0 | 0.00 | 0.00 | 0.00 | 93 | 1009.0 |
| 20260505074516 | 70 | 191 | 11.0 | 14.0 | 0.00 | 0.00 | 0.00 | 93 | 1009.1 |
| 20260505074023 | 70 | 176 | 9.0 | 12.0 | 0.00 | 0.00 | 0.00 | 93 | 1009.1 |
| 20260505073529 | 70 | 197 | 9.0 | 14.0 | 0.00 | 0.00 | 0.00 | 93 | 1009.1 |
| 20260505073018 | 70 | 205 | 7.0 | 11.0 | 0.00 | 0.00 | 0.00 | 93 | 1009.1 |
| 20260505072524 | 70 | 201 | 9.0 | 13.0 | 0.00 | 0.00 | 0.00 | 93 | 1009.4 |
| 20260505072051 | 70 | 169 | 9.0 | 11.0 | 0.00 | 0.00 | 0.00 | 93 | 1009.5 |
| 20260505071519 | 70 | 204 | 9.0 | 14.0 | 0.00 | 0.00 | 0.00 | 93 | 1009.5 |
| 20260505071026 | 70 | 200 | 9.0 | 15.0 | 0.00 | 0.00 | 0.00 | 93 | 1009.6 |
| 20260505070532 | 70 | 192 | 8.0 | 11.0 | 0.00 | 0.00 | 0.00 | 93 | 1009.6 |
| 20260505070021 | 70 | 196 | 11.0 | 17.0 | 0.00 | 0.00 | 0.00 | 93 | 1009.7 |
| 20260505065527 | 70 | 185 | 12.0 | 18.0 | 0.00 | 0.00 | 0.00 | 93 | 1009.7 |
| 20260505065036 | 70 | 206 | 11.0 | 15.0 | 0.00 | 0.00 | 0.00 | 93 | 1009.7 |
| 20260505064522 | 70 | 159 | 10.0 | 12.0 | 0.00 | 0.00 | 0.00 | 92 | 1009.8 |
| 20260505064049 | 70 | 196 | 8.0 | 10.0 | 0.00 | 0.00 | 0.00 | 92 | 1009.8 |
| 20260505063517 | 70 | 194 | 11.0 | 15.0 | 0.00 | 0.00 | 0.00 | 92 | 1009.8 |
| 20260505063024 | 71 | 201 | 10.0 | 13.0 | 0.00 | 0.00 | 0.00 | 92 | 1009.8 |
| 20260505062530 | 71 | 187 | 10.0 | 15.0 | 0.00 | 0.00 | 0.00 | 92 | 1010.0 |
| 20260505062019 | 71 | 197 | 9.0 | 15.0 | 0.00 | 0.00 | 0.00 | 92 | 1010.0 |
| 20260505061525 | 71 | 169 | 11.0 | 16.0 | 0.00 | 0.00 | 0.00 | 92 | 1010.0 |
| 20260505061032 | 71 | 185 | 11.0 | 13.0 | 0.00 | 0.00 | 0.00 | 91 | 1010.1 |
| 20260505060520 | 71 | 193 | 8.0 | 15.0 | 0.00 | 0.00 | 0.00 | 91 | 1010.1 |
| 20260505060027 | 71 | 192 | 11.0 | 15.0 | 0.00 | 0.00 | 0.00 | 91 | 1010.1 |
| 20260505055515 | 71 | 164 | 12.0 | 16.0 | 0.00 | 0.00 | 0.00 | 91 | 1010.1 |
| 20260505055042 | 71 | 184 | 11.0 | 14.0 | 0.00 | 0.00 | 0.00 | 91 | 1010.1 |
| 20260505054528 | 71 | 201 | 10.0 | 15.0 | 0.00 | 0.00 | 0.00 | 91 | 1010.1 |
| 20260505054016 | 71 | 212 | 11.0 | 16.0 | 0.00 | 0.00 | 0.00 | 91 | 1010.1 |
| 20260505053523 | 71 | 198 | 10.0 | 17.0 | 0.00 | 0.00 | 0.00 | 91 | 1010.1 |
| 20260505053030 | 71 | 199 | 9.0 | 16.0 | 0.00 | 0.00 | 0.00 | 91 | 1010.1 |
| 20260505052518 | 71 | 171 | 10.0 | 17.0 | 0.00 | 0.00 | 0.00 | 91 | 1010.1 |
| 20260505052025 | 71 | 196 | 10.0 | 15.0 | 0.00 | 0.00 | 0.00 | 91 | 1010.1 |
| 20260505051531 | 71 | 178 | 9.0 | 15.0 | 0.00 | 0.00 | 0.00 | 91 | 1010.0 |
| 20260505051039 | 71 | 171 | 8.0 | 11.0 | 0.00 | 0.00 | 0.00 | 90 | 1009.8 |
| 20260505050526 | 71 | 159 | 11.0 | 15.0 | 0.00 | 0.00 | 0.00 | 90 | 1009.8 |